Miscellaneous Local Product
Issued by NWS North Platte, NE

Home | Current Version | Previous Version | Text Only | Print | Product List | Glossary On
Versions: 1 2 3 4 5 6 7 8 9 10 11 12 13 14 15 16 17 18 19 20 21 22 23 24 25 26 27 28 29 30 31 32 33 34 35 36 37 38 39 40 41 42 43 44 45 46 47 48 49 50
000
AXUS43 KLBF 040010
MISLBF


WESTERN AND NORTH CENTRAL NEBRASKA HOURLY WEATHER ROUNDUP
NATIONAL WEATHER SERVICE NORTH PLATTE NE
700 PM CDT SUN MAY 03 2015

***STATIONS NOT REPORTING VARIABLES SUCH AS SKY/WEATHER OR
PRESSURE ARE PROVIDED BY THE NEBRASKA DEPARTMENT OF
ROADS...RAWS...AND APRS NETWORKS...AND ARE NOT UNDER
NATIONAL WEATHER SERVICE QUALITY CONTROL***

...OBSERVATIONS IN AND NEAR THE EASTERN PANHANDLE OF NEBRASKA...

CITY           SKY/WX    TMP DP  RH WIND       PRES   REMARKS
PINE RIDGE     SUNNY     67  37  33 NE13      29.98S
CHADRON        MOSUNNY   68  40  35 E14       29.97R
ALLIANCE       CLOUDY    66  41  40 NE20      29.97R
SIDNEY         CLOUDY    67  42  40 NE10      29.99R
WHITECLAY        N/A     66  37  34 NE13        N/A
BIG SPRINGS      N/A     74  41  30 NE13        N/A
$$

...OBSERVATIONS IN NORTH CENTRAL NEBRASKA...

CITY           SKY/WX    TMP DP  RH WIND       PRES   REMARKS
VALENTINE      SUNNY     70  37  29 NE20G28   29.94R
THEDFORD       SUNNY     71  42  34 NE18G25   29.93R
AINSWORTH      SUNNY     70  38  30 N20G26    29.93R
O`NEILL        MOSUNNY   72  42  34 N20G26    29.87R
ORD            SUNNY     77  49  37 N26G35    29.79R
BROKEN BOW     SUNNY     77  48  35 N18G31    29.83R
BROWNLEE         N/A     71  36  27 N20         N/A
VALENTINE NWR    N/A     69  39  33 NE16G24     N/A
SPRINGVIEW       N/A     70  41  34 NE9G18      N/A
HALSEY           N/A     73  41  32 N10G20      N/A
BREWSTER         N/A     75  44  33 NE23        N/A
ROSE             N/A     75  47  36 N20         N/A
NEWPORT          N/A     71  41  33 N17         N/A
SARGENT          N/A     74  48  39 N10G22      N/A
COMSTOCK         N/A     85  51  31 NE16        N/A
EWING            N/A     73  51  46 NE10G20     N/A
$$

...OBSERVATIONS IN SOUTHWEST NEBRASKA AND FAR NORTHEAST COLORADO...

CITY           SKY/WX    TMP DP  RH WIND       PRES   REMARKS
WRAY           FAIR      78  38  23 N13       29.89R
IMPERIAL       MOSUNNY   75  41  29 NE16      29.88R
OGALLALA       MOSUNNY   72  40  31 NE17      29.91S
NORTH PLATTE   SUNNY     75  47  36 N17       29.87R
MCCOOK         PTSUNNY   84  45  25 N18       29.80R
LEXINGTON      SUNNY     79  49  34 N17       29.81R
PAXTON           N/A     75  45  33 N13         N/A
SUTHERLAND       N/A     78  40  25 NE13        N/A
GOTHENBURG       N/A     79  43  27 N8          N/A
CALLAWAY         N/A     75  52  45 N14         N/A
$$

...NORTH PLATTE AREA...

CITY           SKY/WX    TMP DP  RH WIND       PRES   REMARKS
AIRPORT        SUNNY     75  47  36 N17       29.87R
DOWNTOWN         N/A     76  47  35 N6G15       N/A
$$

...SOME WEATHER OBSERVATIONS FROM AROUND THE REGION...

CITY           SKY/WX    TMP DP  RH WIND       PRES   REMARKS
DENVER         TSTM      57  46  66 NE15      30.04R
LARAMIE        LGT RAIN  51  39  63 NE6       30.07R
CHEYENNE       CLOUDY    52  44  74 E8        30.06R
SCOTTSBLUFF    CLOUDY    68  38  33 E15G23    29.98S
RAPID CITY     MOSUNNY   64  36  35 NE15      30.02R
PIERRE         SUNNY     70  27  20 NE13      29.96R
WINNER         FAIR      73  33  23 NE20      29.94R
SIOUX FALLS    PTSUNNY   67  40  37 N18G28    29.85R
OMAHA          CLOUDY    77  59  53 S7        29.73R
GRAND ISLAND   SUNNY     84  52  33 N20       29.74R
KANSAS CITY    PTSUNNY   79  60  52 S17G24    29.82S
WICHITA        MOSUNNY   78  59  51 S21G32    29.83S
HAYS           PTSUNNY   84  50  30 S14       29.77S
LIBERAL        CLOUDY    72  45  37 SW38G52   29.90R
GOODLAND       MOSUNNY   80  43  26 NE7       29.85S
$$



USA.gov is the U.S. government's official web portal to all federal, state and local government web resources and services.